This is the latest recevied weather packets stored in our database for station/object KE5WTH-14. If no packets are shown the sender has not sent any weather packets the latest 1 day(s).
| Time | Temp. | Humidity | Pressure | Rain* | Wind** | Luminosity | Snow |
|---|---|---|---|---|---|---|---|
| 1778044953 | 15° C | 78% | 1010 hPa | 0 mm | 4.02 m/s, 357° | 0 W/m² | - |
| 1778044894 | 15° C | 78% | 1010 hPa | 0 mm | 3.13 m/s, 0° | 0 W/m² | - |
| 1778044833 | 15° C | 78% | 1010 hPa | 0 mm | 3.58 m/s, 13° | 0 W/m² | - |
| 1778044773 | 15° C | 78% | 1010 hPa | 0 mm | 3.58 m/s, 1° | 0 W/m² | - |
| 1778044713 | 15° C | 78% | 1010 hPa | 0 mm | 2.68 m/s, 354° | 0 W/m² | - |
| 1778044652 | 15° C | 78% | 1010 hPa | 0 mm | 3.58 m/s, 0° | 0 W/m² | - |
| 1778044593 | 15° C | 78% | 1010 hPa | 0 mm | 4.02 m/s, 28° | 0 W/m² | - |
| 1778044533 | 15° C | 78% | 1010 hPa | 0 mm | 3.58 m/s, 7° | 0 W/m² | - |
| 1778044473 | 15° C | 79% | 1010.1 hPa | 0 mm | 3.13 m/s, 354° | 0 W/m² | - |
| 1778044414 | 15° C | 78% | 1010.1 hPa | 0 mm | 3.13 m/s, 24° | 0 W/m² | - |
| 1778044353 | 15° C | 78% | 1010.1 hPa | 0 mm | 3.13 m/s, 10° | 0 W/m² | - |
| 1778044294 | 15° C | 79% | 1010.1 hPa | 0 mm | 3.13 m/s, 321° | 0 W/m² | - |
| 1778044234 | 15° C | 79% | 1010.1 hPa | 0 mm | 3.13 m/s, 321° | 0 W/m² | - |
| 1778044173 | 15° C | 79% | 1010 hPa | 0 mm | 3.13 m/s, 321° | 0 W/m² | - |
| 1778044093 | 15° C | 79% | 1010 hPa | 0 mm | 3.13 m/s, 0° | 0 W/m² | - |
| 1778044032 | 15° C | 79% | 1009.9 hPa | 0 mm | 3.13 m/s, 0° | 0 W/m² | - |
| 1778043971 | 15° C | 79% | 1010 hPa | 0 mm | 3.58 m/s, 0° | 0 W/m² | - |
| 1778043910 | 15° C | 79% | 1009.9 hPa | 0 mm | 4.02 m/s, 0° | 0 W/m² | - |
| 1778043848 | 15.56° C | 79% | 1009.9 hPa | 0 mm | 3.13 m/s, 320° | 0 W/m² | - |
| 1778043788 | 15.56° C | 79% | 1009.9 hPa | 0 mm | 3.13 m/s, 49° | 0 W/m² | - |
| 1778043726 | 15.56° C | 79% | 1010 hPa | 0 mm | 2.68 m/s, 0° | 0 W/m² | - |
| 1778043667 | 15.56° C | 79% | 1010 hPa | 0 mm | 3.13 m/s, 333° | 0 W/m² | - |
| 1778043607 | 15.56° C | 79% | 1009.9 hPa | 0 mm | 4.02 m/s, 350° | 0 W/m² | - |
| 1778043551 | 15.56° C | 79% | 1009.9 hPa | 0 mm | 3.58 m/s, 0° | 0 W/m² | - |
| 1778043485 | 15.56° C | 80% | 1009.9 hPa | 0 mm | 3.58 m/s, 355° | 0 W/m² | - |
* Rain latest hour (hover to see other rain measurements)
** Current wind speed in m/s (hover to see current wind gust speed)